STARLINK-34499, 64709

Orbit data source: Space-Track

STARLINK-34499, 64709 is a payload satellite owned by SpaceX/Seattle (US) in LEO that was launched on Sat, 28 Jun 2025 UTC via an FALCON 9 launch vehicle from the Air Force Western Test Range (AFWTR). Payload-class satellites include a variety of spacecraft equipped with specific instruments for various scientific and technological missions. These include communications satellites like Starlink; space stations such as the ISS; scientific satellites like the Hubble; Earth observation satellites from companies like Planet Labs, Umbra, and HawkEye 360; GPS; miniature CubeSats for education and research; and military/defense satellites.

Not visible in the next 10 days
Identifier
64709, 2025-142P
Orbit
LEO
Last TLE update
9 hours ago
Origin
Manufacturer
SpaceX/Seattle
Mission
Operational spacecraft
Bus & Motor
STARLINK V2MO, Unknown motor
Mass
575 kg wet, ~530 kg dry
Launch date (UTC)
2025-06-28 (1 week ago)
Launch vehicle
FALCON 9
Launch site
Air Force Western Test Range (AFWTR)
Object type
Payload
Rocket body
Debris
Shape & HBR
Unknown
Radar Cross Section
RCS unknown

Expand to show TLE details & history

TLE from 9 hours ago
0 STARLINK-34499
1 64709U 25142P   25186.58335648 -.01185672  00000-0 -48042-2 0  9996
2 64709  69.9951 231.3206 0003929 278.0443  61.9726 15.88692291  1974
Epoch: 2025-07-05T14:00Z
TLE epoch observation values (Epoch: 2025-07-05T14:00:01.999Z)
Latitude
-18.91373°
Longitude
90.36758°
Altitude
311.535 km
Speed
7.721 km/s
True Right ascension
14h 56m 46s
True Declination
-18° 48' 05"
Sunlit
Object was in full shadow at epoch
Visualization orbit readout
Latitude
-2.69127°
Longitude
95.41807°
Altitude
311.182 km
Speed
7.722 km/s
Apparent Right ascension
18h 14m 31s
Apparent Declination
-35° 04' 39"
Sunlit
Object is in full shadow
Visualization observer readout
Local Sidereal Time
11:04:51
Azimuth
109.96° ESE
Elevation
-33.824°
Doppler factor
1
Orbital elements
Apogee altitude
306.44 km
Perigee altitude
301.19 km
Semi-major axis
6,681.952 km
Eccentricity
0.00039
Inclination
69.9951°
RAAN
231.3206°
Arg. of periapsis
278.0443°
True anomaly
Unknown
Mean anomaly
61.9726°
Eccentric anomaly
Unknown
Mean motion
3.97364 °/min
Orbital period
90.6 mins
BSTAR
-0.0048042
Loading maneuver chart data...
Loading SW <> Apogee altitude chart data...
Loading historical data...
Loading historical data...
Loading historical data...
Loading historical data...
Loading historical data...
Loading historical data...
Loading historical data...

STARLINK-34499 Visibility

Observer location: undefined°, undefined°

STARLINK-34499 is likely not visible in the next few days
Span
Click to sort rows by Start time (UTC) header in descending order
Start Az.
Max El. time (UTC)
Max El. Az.
Max El.
End time (UTC)
End Az.
|